Location: Az�
(46.4315°N, 4.7615°E)
Time: 04:17:53
(UTC+00:00)

Daily predictions for brighter satellites

Satellite Brightness Start Highest point End
(mag) Time Altitude Azimuth Time Altitude Azimuth Time Altitude Azimuth
Cosmos 1707 Rocket 3.6 00:01:03 10° NNW 00:05:18 62° W 00:05:18 62° W
Okean 1 3.5 00:01:45 10° NNW 00:05:27 67° WNW 00:05:27 67° WNW
Cosmos 494 Rocket 3.8 00:13:18 65° S 00:14:03 86° ESE 00:19:12 10° NNE
Cosmos 2285 Rocket 4.1 00:08:33 10° NNW 00:14:43 57° WSW 00:16:07 47° SSW
Cosmos 2333 Rocket 2.4 00:09:53 10° NW 00:15:22 52° WSW 00:16:02 49° SW
ATLAS 5 CENTAUR R/B 2.6 00:18:25 10° NW 00:23:52 65° NE 00:28:59 17° SE
Cosmos 2360 Rocket 3.6 00:20:50 10° NW 00:25:00 22° W 00:25:09 22° WSW
Cosmos 1452 Rocket 4.1 00:21:52 10° NW 00:26:43 38° WSW 00:26:57 38° WSW
Cosmos 1980 4.2 00:21:37 10° NNW 00:27:13 57° ENE 00:30:19 26° SE
Cosmos 2242 Rocket 4.4 00:23:05 10° N 00:27:19 44° ENE 00:28:16 38° ESE
PSLV R/B 4.0 00:22:48 10° N 00:27:30 59° WNW 00:28:18 51° WSW
Cosmos 1666 2.8 00:29:45 73° NE 00:29:45 73° NE 00:33:22 10° NNE
Cosmos 2322 4.2 00:26:23 10° NW 00:31:43 41° WSW 00:32:15 40° WSW
Meteor 1-14 Rocket 4.1 00:30:32 54° SSW 00:31:51 85° W 00:37:28 10° N
Cosmos 1378 3.8 00:32:41 10° N 00:36:16 45° ENE 00:36:24 45° E
Cosmos 1536 4.0 00:40:02 32° ESE 00:40:27 33° E 00:44:03 10° NNE
APEX 4.2 00:40:59 52° S 00:42:17 72° ESE 00:48:35 10° NNE
Resurs 1-4 Rocket 3.1 00:37:31 10° NNE 00:42:24 35° E 00:44:08 28° SE
Cosmos 2297 Rocket 2.6 00:46:29 41° SSE 00:47:58 51° ESE 00:53:26 10° NE
NOSS 3-1 (C) 4.4 00:43:59 10° NW 00:51:14 46° WSW 00:54:02 36° SSW
Cosmos 2237 Rocket 2.2 00:46:07 10° NNW 00:51:50 80° ENE 00:54:35 32° SSE
Cosmos 1869 Rocket 4.3 00:53:48 39° SE 00:54:48 46° E 00:59:06 10° NNE
Meteor 2-17 Rocket 4.4 00:54:55 44° SSW 00:56:56 73° W 01:03:01 10° N
Cosmos 2227 Rocket 2.8 00:56:52 36° SSE 00:58:34 46° ESE 01:03:57 10° NE
TSX-5 3.6 00:59:09 79° ESE 00:59:09 79° ESE 01:03:26 10° NNE
Cosmos 1709 Rocket 4.0 00:58:20 42° S 01:00:42 89° W 01:07:06 10° N
Cosmos 1470 Rocket 4.1 01:00:37 41° W 01:01:06 43° WNW 01:05:15 10° N
USA 229 DEB 4.0 00:54:55 10° NW 01:02:06 57° WSW 01:05:35 33° S
USA 229 4.0 00:55:01 10° NW 01:02:12 58° WSW 01:05:44 32° S
EO 1 Del DPAF 4.0 01:00:09 10° N 01:03:39 39° WNW 01:03:46 39° WNW
Meteor 2-4 Rocket 4.2 00:58:04 10° NNW 01:03:44 48° W 01:05:15 39° SW
Cosmos 1933 Rocket 3.8 01:07:30 51° WSW 01:08:11 57° WNW 01:12:37 10° N
Cosmos 1745 Rocket 4.5 01:06:16 34° SW 01:08:32 48° WNW 01:14:34 10° N
UNK 4.2 01:06:33 29° SE 01:08:43 57° ENE 01:13:19 10° N
NOSS 0 Rocket 4.1 01:03:37 10° NW 01:09:41 54° WSW 01:11:32 40° SSW
YAOGAN 11 4.3 01:10:25 51° SW 01:11:00 56° W 01:15:30 10° NNW
COSMOS 2428 3.7 01:07:35 10° NW 01:12:20 28° WSW 01:12:40 28° WSW
MOZ.5/SAFIR/RUBIN 5/SL-8 3.8 01:11:26 51° SSW 01:12:24 65° WSW 01:17:08 10° NNW
Lacrosse 5 2.6 01:12:35 35° SSE 01:13:24 37° SE 01:18:03 10° ENE
SL-16 R/B 3.2 01:09:13 10° NNW 01:14:40 46° ENE 01:20:06 10° SE
ADEOS Rocket 3.3 01:11:00 18° SE 01:15:06 57° ENE 01:20:28 10° N
CZ-2D R/B 2.3 01:11:12 10° NNE 01:16:34 68° ESE 01:18:42 37° S
SL-16 R/B 2.5 01:13:31 26° SSE 01:17:14 82° ENE 01:23:27 10° NNW
Okean 1-7 3.1 01:13:29 10° NNW 01:17:40 55° W 01:18:05 53° WSW
Cosmos 1544 2.9 01:18:15 79° S 01:18:28 89° E 01:22:07 10° N
COSMOS 2455 4.0 01:14:38 18° W 01:18:28 36° NW 01:24:00 10° NNE
Helios 1A 3.2 01:18:25 50° WSW 01:18:44 51° W 01:22:54 10° NNW
BREEZE-M DEB (TANK) 4.1 01:22:26 21° E 01:22:26 21° E 01:23:30 10° ENE
Cosmos 909 Rocket 4.3 01:18:54 35° S 01:21:46 67° ESE 01:29:14 10° NE
Okean 3 3.4 01:17:31 10° N 01:21:51 88° WSW 01:22:54 51° S
NOSS 3-1 (A) 4.4 01:15:09 10° NW 01:22:26 47° WSW 01:26:38 28° S
Cosmos 2219 Rocket 3.7 01:18:54 10° WNW 01:22:37 19° W 01:22:37 19° W
ARGOS Delta rocket 4.3 01:19:56 10° N 01:24:33 47° WNW 01:25:47 37° WSW
ADEOS II 3.1 01:20:17 10° NNE 01:25:13 40° E 01:28:03 22° SSE
Cosmos 1340 Rocket 3.5 01:27:12 37° W 01:27:38 39° WNW 01:31:20 10° N
Cosmos 2263 Rocket 4.4 01:24:44 10° SE 01:27:52 15° E 01:31:01 10° ENE
CZ-4 R/B 4.4 01:24:35 10° N 01:29:21 48° WNW 01:31:02 34° WSW
Cosmos 1743 2.6 01:33:42 54° S 01:34:30 81° E 01:38:20 10° N
Cosmos 1269 Rocket 4.4 01:34:36 33° WSW 01:36:40 53° WNW 01:41:51 10° NNE
NOSS 2-2 (D) 4.4 01:33:28 10° NW 01:38:51 82° SW 01:46:28 10° SSE
ASTEX 1 3.8 01:38:33 37° SW 01:39:49 44° W 01:44:31 10° NNW
AQUA 3.9 01:35:06 10° NNE 01:39:53 72° ESE 01:41:55 34° S
Cosmos 1975 4.5 01:38:02 17° SE 01:40:21 29° E 01:43:54 10° NNE
Helios 1B rocket 2.4 01:40:01 10° NNE 01:44:08 78° ESE 01:45:31 41° S
Cosmos 2219 3.3 01:42:03 33° SW 01:44:43 74° WNW 01:50:30 10° NNE
Cosmos 2074 Rocket 4.0 01:43:18 27° S 01:46:57 81° E 01:53:12 10° N
Iridium 4 Rocket 4.2 01:49:50 10° N 01:55:11 58° E 02:00:21 13° SSE
Cosmos 2084 Rocket 3.4 01:51:10 10° NW 01:55:20 57° SW 01:57:52 23° SSE
Cosmos 614 Rocket 4.3 01:52:44 27° S 01:55:29 60° ESE 02:00:38 10° NNE
Meteor 1-11 Rocket 4.3 01:54:11 28° SW 01:56:39 44° WNW 02:01:56 10° N
Cosmos 2181 Rocket 4.4 01:52:28 10° NNW 01:58:33 48° W 02:01:42 27° SSW
Cosmos 192 4.4 01:53:51 10° NNW 01:58:48 82° ENE 02:03:39 10° SSE
Cosmos 1992 Rocket 4.1 01:56:33 10° NNW 02:01:41 56° WSW 02:04:37 25° S
Cosmos 2082 3.7 02:02:39 27° SSW 02:05:55 80° ESE 02:11:41 10° NNE
MINOTAUR 4 R/B 3.9 02:05:02 29° SSE 02:06:45 87° WSW 02:10:20 10° NNW
Cosmos 1733 Rocket 3.0 02:05:38 29° S 02:07:55 90° E 02:12:24 10° N
ATLAS 5 CENTAUR R/B 3.2 02:03:26 10° WNW 02:08:24 29° WSW 02:10:22 25° SW
Cosmos 1842 3.1 02:06:55 10° N 02:10:47 88° W 02:13:03 24° S
CZ-4C R/B 3.5 02:05:24 10° NW 02:12:27 63° NE 02:20:42 10° SE
Cosmos 1536 4.4 02:15:44 19° W 02:16:56 21° WNW 02:20:03 10° NNW
IDEFIX/ARIANE 42P 2.8 02:12:47 10° NNE 02:17:58 64° ESE 02:22:01 16° S
Meteor 1-21 4.4 02:12:11 10° N 02:17:59 76° ENE 02:23:47 10° SSE
USA 215 4.5 02:12:44 10° ENE 02:18:17 29° SE 02:23:07 13° S
Cosmos 1356 Rocket 4.1 02:17:50 16° SSE 02:20:50 48° E 02:24:44 10° NNE
Resurs 1-4 Rocket 3.0 02:17:24 10° N 02:22:11 35° WNW 02:25:13 19° WSW
CBERS-1 4.1 02:20:42 10° NNE 02:25:52 78° ESE 02:29:51 17° S
Cosmos 2251 Rocket 3.7 02:27:52 22° SW 02:31:13 63° WNW 02:36:30 10° NNE
Meteor 1-29 3.1 02:28:27 10° N 02:31:41 52° WNW 02:33:12 27° SW
Cosmos 2297 Rocket 3.4 02:28:17 14° WSW 02:32:15 30° NW 02:37:15 10° N
Cosmos 2237 Rocket 3.7 02:31:41 10° WNW 02:35:10 17° W 02:36:20 16° WSW
Cosmos 1340 4.4 02:35:42 10° N 02:39:08 33° ENE 02:42:32 10° SE
Okean 2 3.4 02:36:22 10° NNW 02:40:32 69° W 02:44:24 12° S
SL-08 R/B 4.2 02:36:03 10° SE 02:40:50 53° ENE 02:45:41 10° N
Nadezhda 3 Rocket 4.1 02:34:41 10° NNW 02:40:57 61° W 02:47:09 10° S
Cosmos 1603 4.4 02:36:07 10° NNW 02:41:39 57° ENE 02:47:11 10° SE
Cosmos 1238 Rocket 2.2 02:40:33 24° SSW 02:42:11 65° W 02:45:30 10° N
Cosmos 2227 Rocket 3.3 02:38:41 14° WSW 02:42:48 32° NW 02:47:52 10° NNE
Spot 1 4.0 02:40:36 10° SSE 02:44:47 82° ENE 02:48:53 10° NNW
Cosmos 1626 4.4 02:44:22 10° NNE 02:47:31 25° ENE 02:50:38 10° SE
BREEZE-M DEB (TANK) 3.9 02:38:45 14° SW 02:47:35 64° SSE 02:50:57 10° ENE
CZ-2C R/B 4.0 02:44:04 10° NE 02:48:02 29° E 02:52:00 10° SSE
Cosmos 1674 3.8 02:44:39 10° N 02:48:22 44° ENE 02:52:02 10° SSE
CZ-4C R/B 3.4 02:47:09 10° S 02:51:10 71° WSW 02:55:26 10° NNW
Cosmos 1190 Rocket 4.3 02:46:23 11° S 02:51:20 66° ESE 02:56:37 10° NNE
USA 267 4.3 02:46:43 10° E 02:52:55 48° NNE 02:59:07 10° NW
CZ-2D R/B 3.8 02:52:15 10° NNW 02:56:07 21° WNW 03:00:01 10° WSW
Lacrosse 5 2.4 02:51:46 13° WSW 02:56:16 53° NNW 03:01:15 10° NE
SL-16 R/B 3.0 02:53:42 10° NW 02:58:35 31° WSW 03:03:27 10° SSW
Cosmos 1140 Rocket 3.5 02:54:33 13° SSW 02:59:16 87° WNW 03:04:33 10° NNE
ADEOS Rocket 4.1 02:57:57 14° SW 03:01:02 22° W 03:05:12 10° NW
SL-16 R/B 4.0 02:58:37 13° WSW 03:01:33 18° W 03:05:35 10° NW
ARIANE 5 R/B 2.7 02:58:25 10° NNE 03:03:35 78° ESE 03:08:47 10° S
ADEOS II 3.1 03:00:12 10° N 03:04:47 31° WNW 03:08:58 12° WSW
CZ-4B R/B 3.7 03:01:11 10° NNE 03:06:05 69° ESE 03:10:50 10° S
IRS-1C 4.1 03:02:21 10° NNE 03:07:43 81° WNW 03:13:02 10° SSW
ATLAS CENTAUR R/B 2.2 03:07:12 10° S 03:10:43 40° ESE 03:14:26 10° NE
NOSS 3-3 (A) 4.0 03:05:31 11° SSW 03:10:57 77° SE 03:17:30 10° NE
Cosmos 2263 Rocket 2.2 03:05:29 11° SSW 03:10:59 86° WNW 03:16:44 10° NNE
NOSS 3-3 (C) 4.0 03:05:38 11° SSW 03:11:03 76° SE 03:17:36 10° NE
CZ-2C R/B 4.4 03:08:54 10° NNE 03:12:13 31° E 03:15:34 10° SSE
Cosmos 1461 3.1 03:10:48 12° SW 03:14:59 77° NW 03:19:28 10° NE
IRS-1D 4.5 03:12:03 10° N 03:16:23 31° WNW 03:20:43 10° SW
Cosmos 1975 4.2 03:13:47 12° SW 03:16:47 25° WNW 03:20:12 10° NNW
Cosmos 1805 3.7 03:18:22 10° S 03:22:12 64° E 03:26:05 10° NNE
Cosmos 1300 Rocket 4.4 03:20:20 10° S 03:24:31 51° E 03:28:46 10° NNE
Cosmos 1975 Rocket 3.0 03:21:13 10° NNW 03:25:39 77° W 03:29:59 10° S
KORONAS-FOTON 3.9 03:24:53 10° NNW 03:28:45 58° W 03:32:36 10° S
SL-14 R/B 4.3 03:26:00 10° N 03:29:47 49° ENE 03:33:35 10° SSE
GEOS 3 Rocket 4.0 03:27:41 10° SSE 03:32:47 45° WSW 03:37:53 10° NW
Cosmos 676 Rocket 4.1 03:28:20 10° SSW 03:33:40 89° WNW 03:39:03 10° NNE
Cosmos 1707 4.1 03:31:32 10° NW 03:34:32 22° W 03:37:30 10° SW
SL-8 R/B 3.9 03:30:20 10° WSW 03:35:06 67° SSE 03:39:53 10° ENE
Cosmos 44 3.5 03:31:44 10° NW 03:36:51 53° WSW 03:41:38 10° SSE
Cosmos 1943 3.3 03:33:58 10° NW 03:39:33 56° WSW 03:45:06 10° S
PAYLOAD A 4.2 03:35:16 10° NNE 03:40:44 85° WNW 03:46:06 10° SSW
